[[{"header":{"parameterUnit":"m.s-1","parameterCategory":1,"la1":30.2991,"la2":30.254,"lo1":-89.0895,"lo2":-89.0444,"dy":0.0017,"dx":0.0017,"nx":28,"ny":28,"refTime":"2024-03-06T03:00:00:Z","depth":0,"parameterNumber":2,"parameterNumberName":"U-component_of_WINDS"},"data":[0,0,0,0,0,0,0,0,0,0,0,0,0,0,0,0,0,0,0,0,0,0,0,0,0,0,0,0,0,0,0,0,0,0,0,0,0,0,0,0,0,0,0,0,0,0,0,0,0,0,0,0,0,0,0,0,0,0,1.3969,1.3969,0,1.3995,1.3995,1.3995,1.3959,1.3958,1.3957,1.3956,1.3985,1.3987,1.3989,0,0,0,0,0,0,0,0,0,0,0,0,0,1.389,1.3892,1.3968,1.3969,1.3969,1.3995,1.3995,1.3995,1.396,1.3958,1.3957,1.3955,1.3985,1.3987,1.3989,0,0,0,0,0,0,0,0,0,0,0,0,0,1.3921,1.3893,1.3968,1.3954,1.3953,1.3995,1.3995,1.3996,1.396,1.3958,1.3956,1.3954,1.3984,1.3987,1.399,1.4047,0,0,1.3999,1.4,0,0,0,0,0,0,0,0,1.392,1.3924,1.3956,1.3955,1.3954,1.3972,1.3978,1.4013,1.396,1.3958,1.3956,1.3953,1.3983,1.3985,1.3995,1.4048,1.405,1.3999,1.4001,1.4002,1.4003,0,0,0,0,0,0,0,1.3918,1.3923,1.3979,1.3957,1.3956,1.3948,1.395,1.3985,1.3981,1.3958,1.3955,1.3959,1.3982,1.3992,1.3995,1.405,1.3999,1.4002,1.4003,1.4005,1.4153,1.4155,0,0,0,0,0,0,1.3917,1.3921,1.3978,1.398,1.3932,1.3951,1.3953,1.3968,1.398,1.398,1.396,1.3957,1.3988,1.3992,1.3996,1.4065,1.4002,1.4005,1.4007,1.4151,1.4154,1.4156,0,0,0,0,0,0,1.3915,1.3922,1.3977,1.395,1.3956,1.3954,1.3971,1.397,1.398,1.3982,1.3981,1.3971,1.3986,1.3992,1.4035,1.4066,1.4006,1.4009,1.4149,1.4152,1.4155,1.4203,0,0,0,0,0,0,1.3913,1.3922,1.3943,1.3951,1.3958,1.4015,1.3973,1.3972,1.3985,1.3981,1.3992,1.3992,1.3985,1.403,1.4038,1.4069,1.4011,1.4146,1.415,1.4154,1.4199,1.4207,1.4215,0,0,0,0,0,1.391,1.3955,1.3944,1.3951,1.3984,1.4016,1.4021,1.4011,1.3987,1.4009,1.4011,1.3992,1.4061,1.4035,1.4043,1.4075,1.4144,1.4149,1.4154,1.4195,1.4206,1.4215,0,0,0,0,0,0,1.3952,1.3956,1.3944,1.3992,1.4004,1.401,1.4037,1.4022,1.4042,1.4037,1.4025,1.4028,1.4074,1.4078,1.405,1.4132,1.4099,1.4105,1.4127,1.4138,1.4146,1.4144,1.4014,0,0,0,0,0,1.3967,1.3992,1.3994,1.4037,1.4044,1.404,1.4053,1.4045,1.4057,1.4062,1.4066,1.408,1.4104,1.4121,1.4144,1.4199,1.4202,1.4225,1.4233,1.424,1.4246,1.4277,1.4288,1.4172,1.4172,1.4172,0,0,1.3998,1.4003,1.402,1.4046,1.4054,1.4081,1.4044,1.4074,1.4095,1.4067,1.4108,1.4111,1.4126,1.4175,1.4197,1.4181,1.4279,1.4246,1.4251,1.4254,1.4283,1.4294,1.4304,1.4175,1.4175,1.4174,0,0,1.4069,1.4075,1.4112,1.4121,1.4133,1.413,1.4139,1.4147,1.4149,1.4189,1.4169,1.4194,1.4236,1.4247,1.4259,1.4334,1.4318,1.4342,1.4385,1.4415,1.4425,1.4433,1.4461,1.4471,1.4348,1.4348,1.4348,0,1.4106,1.4146,1.4133,1.4165,1.4178,1.4152,1.419,1.42,1.422,1.423,1.421,1.4264,1.4271,1.4324,1.4342,1.4352,1.4363,1.4341,1.4424,1.4432,1.4439,1.4467,1.4477,1.4351,1.4351,1.435,1.435,0,1.4192,1.422,1.4248,1.4267,1.4283,1.4318,1.4312,1.4329,1.4319,1.4318,1.4361,1.4369,1.4394,1.4405,1.4396,1.4457,1.4446,1.4426,1.4392,1.4454,1.4479,1.4489,1.4355,1.4354,1.4353,1.4352,0,0,1.4291,1.4302,1.4313,1.4322,1.4334,1.4356,1.439,1.4413,1.4429,1.4444,1.4473,1.451,1.4491,1.4504,1.4496,1.4522,1.4583,1.4498,1.4499,1.4515,1.4653,1.4669,1.4682,1.4572,1.4574,1.4576,1.4652,0,1.4363,1.4421,1.4411,1.4468,1.4495,1.4471,1.4501,1.4512,1.4513,1.4536,1.4536,1.4563,1.4536,1.4543,1.4568,1.4571,1.4611,1.4565,1.4601,1.4603,1.46,1.4694,1.4712,1.4784,1.4662,1.4664,1.4665,0,1.4455,1.4473,1.4532,1.4541,1.4552,1.4579,1.46,1.4621,1.4634,1.4633,1.4647,1.4634,1.467,1.4635,1.4684,1.4653,1.4667,1.4671,1.4673,1.4677,1.4639,1.4703,1.4806,1.4818,1.468,1.4679,1.4678,0,1.4524,1.4562,1.4603,1.4611,1.4621,1.4641,1.4647,1.4657,1.4672,1.4691,1.4701,1.4723,1.4736,1.4754,1.4748,1.4723,1.48,1.4764,1.4801,1.4802,1.482,1.4819,1.4928,1.4826,1.4826,1.4826,1.4826,0,1.4606,1.4644,1.4634,1.4659,1.4701,1.4689,1.4732,1.4734,1.4744,1.4771,1.4751,1.4777,1.4767,1.4792,1.4787,1.483,1.4836,1.4836,1.4835,1.4839,1.4839,1.4849,1.4845,1.4829,1.4828,1.4828,1.4827,0,1.469,1.4684,1.4728,1.4734,1.4737,1.4768,1.4774,1.4798,1.4797,1.4831,1.4838,1.4836,1.4865,1.486,1.4892,1.4889,1.4943,1.4935,1.4939,1.4937,1.4975,1.4973,1.5097,1.5113,1.4999,1.5,1.5001,0,1.4744,1.4773,1.4782,1.4798,1.4805,1.4831,1.4846,1.4835,1.4851,1.4868,1.4891,1.4918,1.4939,1.4986,1.4989,1.5013,1.5006,1.5048,1.501,1.5014,1.5009,1.5008,1.5012,1.5056,1.5058,1.5059,1.5059,0,1.4841,1.4837,1.4859,1.488,1.4898,1.4914,1.4929,1.4943,1.4934,1.4954,1.4982,1.4999,1.5031,1.5059,1.5082,1.5089,1.5074,1.5071,1.5081,1.5087,1.5088,1.509,1.4961,1.5069,1.5068,1.5067,1.5067,1.5066,1.4913,1.4938,1.4948,1.4973,1.4983,1.4997,1.5021,1.5022,1.5045,1.507,1.5063,1.5096,1.5109,1.5138,1.5147,1.5174,1.5159,1.5173,1.5177,1.5181,1.5187,1.5083,1.5178,1.5178,1.5177,1.5177,1.5177,0,1.501,1.5016,1.5039,1.506,1.508,1.5062,1.5077,1.5096,1.5125,1.5138,1.5158,1.5192,1.5219,1.5223,1.5249,1.5269,1.5263,1.5276,1.5276,1.5278,1.5198,1.5187,1.5281,1.5281,1.5281,1.5281,1.5281,1.5281,1.5064,1.5105,1.5102,1.5148,1.5154,1.5185,1.5196,1.5209,1.5219,1.5258,1.5279,1.5281,1.5291,1.5317,1.5341,1.5342,1.5353,1.537,1.5368,1.5294,1.5283,1.5273,1.5263,1.5372,1.5372,1.5446,1.5447,1.5447]},{"header":{"parameterUnit":"m.s-1","parameterCategory":1,"la1":30.2991,"la2":30.254,"lo1":-89.0895,"lo2":-89.0444,"dy":0.0017,"dx":0.0017,"nx":28,"ny":28,"refTime":"2024-03-06T03:00:00:Z","depth":0,"parameterNumber":3,"parameterNumberName":"V-component_of_WINDS"},"data":[0,0,0,0,0,0,0,0,0,0,0,0,0,0,0,0,0,0,0,0,0,0,0,0,0,0,0,0,0,0,0,0,0,0,0,0,0,0,0,0,0,0,0,0,0,0,0,0,0,0,0,0,0,0,0,0,0,0,-1.043,-1.0431,0,-1.0476,-1.0476,-1.0477,-1.0505,-1.0505,-1.0506,-1.0506,-1.0551,-1.0552,-1.0553,0,0,0,0,0,0,0,0,0,0,0,0,0,-1.0367,-1.0368,-1.043,-1.0431,-1.0431,-1.0476,-1.0476,-1.0477,-1.0505,-1.0505,-1.0506,-1.0506,-1.055,-1.0551,-1.0553,0,0,0,0,0,0,0,0,0,0,0,0,0,-1.0401,-1.0368,-1.043,-1.0451,-1.0453,-1.0475,-1.0476,-1.0477,-1.0505,-1.0505,-1.0506,-1.0506,-1.055,-1.0551,-1.0553,-1.0558,0,0,-1.0558,-1.0558,0,0,0,0,0,0,0,0,-1.0399,-1.0404,-1.0447,-1.0449,-1.0452,-1.0485,-1.047,-1.0504,-1.0505,-1.0485,-1.0506,-1.0506,-1.0528,-1.0532,-1.054,-1.056,-1.0562,-1.0558,-1.0559,-1.0559,-1.056,0,0,0,0,0,0,0,-1.0397,-1.0402,-1.0448,-1.0448,-1.0451,-1.0457,-1.0463,-1.0477,-1.0505,-1.0487,-1.0489,-1.0494,-1.053,-1.0538,-1.0541,-1.0562,-1.0558,-1.0559,-1.056,-1.0561,-1.0589,-1.0589,0,0,0,0,0,0,-1.0391,-1.04,-1.0447,-1.0449,-1.0426,-1.0458,-1.0464,-1.0474,-1.0505,-1.051,-1.0494,-1.0496,-1.0535,-1.0539,-1.0543,-1.055,-1.0559,-1.0561,-1.0562,-1.0589,-1.0589,-1.0588,0,0,0,0,0,0,-1.039,-1.0395,-1.0445,-1.0425,-1.0432,-1.0459,-1.047,-1.0475,-1.0483,-1.051,-1.0515,-1.0498,-1.0536,-1.0541,-1.0554,-1.0552,-1.0562,-1.0563,-1.0589,-1.0589,-1.0589,-1.0566,0,0,0,0,0,0,-1.0388,-1.0395,-1.0397,-1.0425,-1.0433,-1.0455,-1.047,-1.0476,-1.0486,-1.0488,-1.0515,-1.0519,-1.0536,-1.0551,-1.0555,-1.0555,-1.0564,-1.0589,-1.0589,-1.0589,-1.0567,-1.0565,-1.0563,0,0,0,0,0,-1.0386,-1.0388,-1.0397,-1.0402,-1.0436,-1.0455,-1.046,-1.048,-1.0486,-1.0488,-1.0506,-1.0518,-1.0552,-1.0553,-1.0557,-1.0557,-1.059,-1.0589,-1.0589,-1.0568,-1.0565,-1.0563,0,0,0,0,0,0,-1.0358,-1.0392,-1.0402,-1.0414,-1.0432,-1.046,-1.0464,-1.0476,-1.0492,-1.0494,-1.0517,-1.0523,-1.0534,-1.0547,-1.0547,-1.0563,-1.0572,-1.0573,-1.0555,-1.0552,-1.0551,-1.0547,-1.0566,0,0,0,0,0,-1.0354,-1.0367,-1.0396,-1.0403,-1.0412,-1.0436,-1.0445,-1.0459,-1.0478,-1.0485,-1.0504,-1.0521,-1.0536,-1.0545,-1.056,-1.0569,-1.0575,-1.0571,-1.0569,-1.0567,-1.0567,-1.0574,-1.0572,-1.0587,-1.0587,-1.0587,0,0,-1.0344,-1.0364,-1.0371,-1.0398,-1.0414,-1.0426,-1.0442,-1.0455,-1.0464,-1.0487,-1.0501,-1.0515,-1.0536,-1.0548,-1.0554,-1.0559,-1.0565,-1.0567,-1.0565,-1.0566,-1.0573,-1.0572,-1.057,-1.0587,-1.0587,-1.0587,0,0,-1.0334,-1.035,-1.0359,-1.0374,-1.0397,-1.0414,-1.0415,-1.0442,-1.0453,-1.0467,-1.0485,-1.0496,-1.0521,-1.0535,-1.0546,-1.0541,-1.0554,-1.0546,-1.0536,-1.0541,-1.054,-1.0539,-1.0538,-1.0537,-1.0546,-1.0546,-1.0546,0,-1.0319,-1.0339,-1.0361,-1.0373,-1.0384,-1.0407,-1.0415,-1.0429,-1.0455,-1.0462,-1.0468,-1.05,-1.0515,-1.0531,-1.053,-1.0537,-1.054,-1.0543,-1.0539,-1.0538,-1.0537,-1.0536,-1.0535,-1.0544,-1.0545,-1.0545,-1.0545,0,-1.032,-1.0333,-1.0337,-1.0363,-1.0375,-1.0385,-1.0409,-1.0418,-1.0431,-1.0447,-1.0461,-1.0481,-1.0501,-1.0505,-1.0518,-1.0522,-1.0525,-1.0534,-1.0544,-1.0534,-1.0534,-1.0533,-1.0543,-1.0543,-1.0544,-1.0544,0,0,-1.0292,-1.0331,-1.0332,-1.0344,-1.0372,-1.0383,-1.0394,-1.0414,-1.0421,-1.0439,-1.0449,-1.0469,-1.0478,-1.049,-1.0505,-1.051,-1.0505,-1.0519,-1.052,-1.0515,-1.0512,-1.0504,-1.0503,-1.0514,-1.0514,-1.0514,-1.051,0,-1.0286,-1.0307,-1.0328,-1.0342,-1.0355,-1.0377,-1.0386,-1.0404,-1.0419,-1.0432,-1.0449,-1.0463,-1.0474,-1.0481,-1.0487,-1.0504,-1.0505,-1.0505,-1.0523,-1.0523,-1.0517,-1.0503,-1.0495,-1.0491,-1.051,-1.051,-1.051,0,-1.0281,-1.0298,-1.0314,-1.0341,-1.0347,-1.0355,-1.0375,-1.0388,-1.0408,-1.0419,-1.0433,-1.0448,-1.0461,-1.0469,-1.0487,-1.0486,-1.0495,-1.0505,-1.0505,-1.0507,-1.0516,-1.0505,-1.049,-1.0489,-1.0509,-1.0509,-1.0509,0,-1.026,-1.0287,-1.03,-1.031,-1.0341,-1.0347,-1.036,-1.0381,-1.0392,-1.0409,-1.0416,-1.0435,-1.0445,-1.0458,-1.0478,-1.0482,-1.0494,-1.0504,-1.0503,-1.0502,-1.0504,-1.0503,-1.049,-1.051,-1.051,-1.051,-1.051,0,-1.025,-1.0259,-1.0291,-1.0299,-1.0309,-1.0333,-1.0342,-1.0357,-1.0376,-1.0387,-1.0407,-1.0417,-1.0443,-1.0455,-1.0471,-1.0483,-1.0488,-1.0496,-1.0501,-1.0495,-1.0494,-1.05,-1.0501,-1.0509,-1.0509,-1.0509,-1.0509,0,-1.0228,-1.025,-1.0265,-1.0294,-1.0302,-1.0308,-1.0333,-1.0341,-1.0358,-1.0372,-1.0376,-1.0402,-1.0418,-1.044,-1.0462,-1.0473,-1.0483,-1.049,-1.0476,-1.0479,-1.0477,-1.0477,-1.0467,-1.0467,-1.0486,-1.0486,-1.0486,0,-1.022,-1.0227,-1.0257,-1.0267,-1.0279,-1.0294,-1.0305,-1.0329,-1.0339,-1.0364,-1.0369,-1.0387,-1.0403,-1.0428,-1.0448,-1.0466,-1.0473,-1.0468,-1.0476,-1.047,-1.0473,-1.0472,-1.0473,-1.0466,-1.0466,-1.0466,-1.0465,0,-1.0204,-1.0215,-1.0231,-1.025,-1.0263,-1.028,-1.0297,-1.0303,-1.033,-1.0342,-1.0359,-1.0371,-1.0395,-1.0412,-1.0433,-1.0446,-1.046,-1.0463,-1.0464,-1.0458,-1.045,-1.0454,-1.0471,-1.0463,-1.0463,-1.0464,-1.0464,-1.0464,-1.0189,-1.0197,-1.0219,-1.0236,-1.0252,-1.0268,-1.0277,-1.0295,-1.031,-1.0332,-1.0345,-1.0361,-1.0382,-1.0411,-1.0424,-1.0438,-1.0443,-1.0444,-1.0444,-1.0444,-1.0442,-1.0448,-1.0441,-1.0442,-1.0442,-1.0442,-1.0442,0,-1.0174,-1.019,-1.0205,-1.0229,-1.0243,-1.0255,-1.0275,-1.0286,-1.03,-1.0319,-1.0334,-1.0354,-1.0371,-1.0394,-1.0412,-1.0419,-1.0426,-1.0423,-1.0423,-1.0425,-1.0436,-1.0434,-1.0417,-1.0417,-1.0417,-1.0417,-1.0417,-1.0417,-1.0168,-1.0182,-1.0195,-1.0217,-1.0233,-1.025,-1.026,-1.0275,-1.029,-1.0311,-1.0326,-1.0341,-1.0361,-1.0381,-1.0398,-1.0404,-1.041,-1.0405,-1.0413,-1.0422,-1.0425,-1.0427,-1.0425,-1.0406,-1.0406,-1.0401,-1.0401,-1.0401]}]]